Location: Grand Rapids
(42.9630°N, 85.6680°W)
Time: 02:58:52
(UTC-04:00)

S-56A Canister/Altair - Pass Details

Date: 30 May 2024
Orbit: 637 x 2489 km, 38.9° (Epoch: 22 June)

Event Time Altitude Azimuth Distance (km) Brightness Sun altitude
Rises 06:30:52 0° 248° (WSW) 6,158 11.4 2.9°
Reaches altitude 10° 06:35:00 10° 246° (WSW) 5,120 11.1 3.6°
Maximum altitude 06:49:32 68° 168° (SSE) 2,253 10.0 6.0°
Drops below altitude 10° 07:00:20 10° 89° (E) 3,917 12.7 7.8°
Sets 07:03:04 0° 86° (E) 4,682 13.2 8.3°
